GEFSSE_prec_meanprecacc_180.txt.gz
Total_Precipitation_Accumulation
1.32 1.01 1.64 1.74 1.59 1.41 1.32 1.30 1.44 1.50 1.44 1.34 1.34 1.26 1.15 0.98 0.85 0.75 0.66 0.64 0.63 0.58 0.58 0.58 0.59 0.63 0.63 0.59 0.66 0.73 0.76 0.66 0.66 0.67 0.60 0.60 0.70 0.68 0.69 0.90 1.37 1.78 1.17
0.79 0.79 1.57 1.73 1.53 1.38 1.27 1.31 1.53 1.55 1.53 1.44 1.31 1.20 1.05 0.88 0.79 0.72 0.68 0.62 0.62 0.59 0.58 0.58 0.57 0.65 0.67 0.63 0.70 0.78 0.75 0.71 0.76 0.82 0.82 0.84 0.77 0.74 0.76 0.88 1.25 1.56 1.14
0.62 0.71 1.19 1.64 1.53 1.41 1.34 1.33 1.42 1.47 1.44 1.24 1.19 1.14 1.02 0.87 0.78 0.72 0.65 0.60 0.58 0.60 0.54 0.52 0.54 0.63 0.67 0.71 0.71 0.69 0.67 0.74 0.81 0.97 1.37 1.86 1.32 0.91 0.89 0.84 1.01 1.06 0.99
0.65 0.71 0.93 1.49 1.57 1.48 1.39 1.36 1.37 1.36 1.32 1.17 1.11 1.03 0.94 0.87 0.80 0.78 0.68 0.62 0.53 0.49 0.50 0.51 0.50 0.55 0.59 0.62 0.66 0.65 0.61 0.71 0.81 1.01 1.46 1.93 1.76 1.27 1.09 1.03 1.11 0.99 0.98
0.71 0.78 1.04 1.54 1.54 1.48 1.46 1.47 1.50 1.39 1.32 1.19 1.01 0.97 0.92 0.89 0.82 0.78 0.71 0.60 0.52 0.52 0.50 0.50 0.49 0.53 0.61 0.61 0.58 0.59 0.63 0.76 0.93 0.88 1.18 1.62 2.02 1.66 1.21 1.23 1.30 1.13 1.07
0.74 0.79 1.04 1.42 1.47 1.46 1.47 1.49 1.46 1.31 1.22 1.12 0.97 0.95 0.97 0.95 0.87 0.82 0.73 0.65 0.58 0.58 0.54 0.54 0.53 0.57 0.61 0.61 0.60 0.66 0.77 0.85 0.84 0.94 1.22 1.57 2.01 1.75 1.38 1.29 1.20 1.30 1.19
0.76 0.75 0.97 1.35 1.41 1.45 1.36 1.20 1.23 1.22 1.13 1.01 0.93 0.89 0.90 0.89 0.86 0.80 0.82 0.76 0.68 0.67 0.62 0.62 0.60 0.56 0.57 0.62 0.66 0.74 0.84 0.82 0.83 1.07 1.17 1.50 1.59 1.53 1.34 1.25 1.28 1.48 1.37
0.85 0.75 0.84 1.17 1.27 1.25 1.21 1.16 1.22 1.20 1.08 0.95 0.86 0.85 0.85 0.88 0.81 0.74 0.74 0.72 0.71 0.73 0.71 0.66 0.65 0.57 0.58 0.68 0.73 0.82 0.92 0.86 0.81 0.93 0.96 1.25 1.57 1.55 1.23 1.18 1.25 1.44 1.54
1.17 0.98 0.87 0.96 1.10 1.15 1.21 1.22 1.31 1.33 1.21 1.03 0.87 0.85 0.84 0.74 0.64 0.61 0.65 0.68 0.69 0.69 0.71 0.69 0.68 0.63 0.63 0.74 0.79 0.87 0.96 0.88 0.91 0.91 0.79 1.20 1.62 1.46 1.18 1.06 1.10 1.27 1.41
1.19 1.14 1.03 0.98 1.03 1.06 1.12 1.30 1.46 1.57 1.59 1.31 0.99 0.91 0.82 0.66 0.60 0.62 0.62 0.67 0.73 0.78 0.76 0.74 0.75 0.73 0.77 0.80 0.81 0.85 0.86 0.77 0.83 0.82 0.90 1.10 1.55 1.45 1.16 1.00 0.97 0.99 1.09
0.83 0.90 0.94 0.95 1.02 0.99 0.98 1.12 1.40 1.58 1.68 1.36 0.97 0.97 0.87 0.63 0.63 0.68 0.67 0.83 0.92 0.94 0.92 0.93 0.96 0.95 0.93 0.86 0.87 0.93 0.77 0.57 0.70 0.85 0.95 1.19 1.55 1.48 1.16 0.99 0.81 0.82 0.85
0.66 0.63 0.64 0.65 0.72 0.79 0.82 1.07 1.36 1.40 1.48 1.19 1.00 1.02 0.98 1.02 0.96 0.74 0.73 0.95 1.10 1.16 1.07 1.05 1.11 1.04 0.90 0.75 0.75 0.76 0.62 0.59 0.68 0.77 0.85 1.27 1.61 1.50 1.20 0.97 0.77 0.75 0.75
0.50 0.48 0.46 0.48 0.49 0.59 0.81 1.08 1.30 1.36 1.37 1.38 1.40 1.25 1.23 1.18 0.98 0.80 0.77 0.83 0.91 1.00 0.96 1.04 1.07 0.93 0.84 0.73 0.70 0.63 0.56 0.68 0.85 0.80 0.94 1.31 1.62 1.53 1.32 1.13 0.89 0.82 0.81
0.52 0.51 0.44 0.36 0.37 0.47 0.62 0.83 1.10 1.17 1.21 1.27 1.26 1.06 1.13 1.14 0.95 0.90 0.99 1.02 1.00 0.99 1.13 1.17 1.15 1.11 0.92 0.74 0.72 0.75 0.70 0.69 0.85 0.93 1.07 1.18 1.53 1.67 1.47 1.29 1.10 1.01 0.93
0.60 0.69 0.65 0.49 0.43 0.48 0.53 0.56 0.68 0.78 0.88 1.15 1.22 0.96 0.94 0.95 0.99 1.02 0.94 1.09 1.16 1.16 1.17 1.17 1.09 1.04 1.03 0.91 0.91 0.96 0.94 0.78 0.82 0.90 1.02 1.01 1.25 1.65 1.73 1.54 1.39 1.19 1.06
0.45 0.56 0.62 0.60 0.61 0.60 0.52 0.43 0.42 0.47 0.60 0.74 0.77 0.72 0.76 0.78 0.88 1.05 1.00 1.00 1.08 1.26 1.32 1.26 1.16 1.19 1.18 1.01 1.03 1.11 1.06 0.96 0.96 0.99 1.09 0.95 0.84 1.03 1.42 1.64 1.62 1.46 1.25
0.36 0.38 0.46 0.53 0.59 0.64 0.67 0.62 0.49 0.49 0.55 0.56 0.57 0.62 0.69 0.69 0.82 0.99 0.96 0.87 0.87 1.04 1.23 1.37 1.39 1.35 1.21 1.10 1.11 1.13 1.05 1.04 1.02 1.15 1.17 1.12 0.91 0.73 0.92 1.21 1.44 1.50 1.47
0.35 0.31 0.35 0.38 0.46 0.56 0.67 0.73 0.68 0.64 0.59 0.53 0.50 0.47 0.50 0.52 0.61 0.81 0.89 0.81 0.82 1.00 1.23 1.43 1.54 1.56 1.42 1.36 1.40 1.31 1.15 1.10 1.07 1.19 1.21 1.23 1.21 0.96 0.82 0.81 0.95 1.19 1.37
0.33 0.30 0.29 0.30 0.35 0.43 0.53 0.60 0.60 0.59 0.54 0.53 0.52 0.41 0.39 0.41 0.53 0.74 0.93 0.98 0.98 1.10 1.24 1.28 1.50 1.60 1.67 1.58 1.45 1.35 1.25 1.23 1.19 1.15 1.29 1.26 1.26 1.19 1.02 0.74 0.65 0.73 0.96
0.32 0.31 0.29 0.29 0.30 0.33 0.36 0.45 0.49 0.46 0.45 0.50 0.49 0.48 0.51 0.58 0.65 0.85 1.08 1.18 1.30 1.34 1.41 1.57 1.86 1.87 1.76 1.75 1.61 1.43 1.28 1.27 1.30 1.35 1.33 1.29 1.34 1.22 1.07 0.90 0.76 0.54 0.63
0.26 0.25 0.24 0.28 0.29 0.27 0.25 0.30 0.35 0.35 0.44 0.52 0.59 0.64 0.69 0.72 0.80 1.03 1.24 1.48 1.62 1.52 1.54 1.76 2.02 2.19 2.03 1.89 1.95 1.84 1.65 1.47 1.42 1.40 1.38 1.40 1.41 1.34 1.22 1.17 1.05 0.88 0.72
0.13 0.16 0.19 0.19 0.20 0.19 0.19 0.24 0.32 0.39 0.45 0.58 0.74 0.85 0.87 0.86 0.91 0.97 1.18 1.39 1.48 1.55 1.60 1.73 1.97 2.31 2.17 1.95 2.11 2.45 2.24 2.00 1.58 1.29 1.42 1.48 1.50 1.42 1.30 1.16 1.13 1.07 0.99
0.11 0.12 0.14 0.16 0.17 0.17 0.23 0.42 0.69 0.94 1.02 1.04 1.06 1.20 1.29 1.25 1.20 1.18 1.21 1.36 1.46 1.60 1.68 1.73 1.77 2.07 2.21 2.08 2.09 2.57 2.49 2.26 2.10 1.63 1.32 1.39 1.48 1.54 1.50 1.40 1.27 1.20 1.12
0.12 0.14 0.15 0.15 0.18 0.21 0.36 0.69 1.08 1.40 1.50 1.50 1.62 1.67 1.73 1.66 1.51 1.49 1.49 1.59 1.56 1.54 1.56 1.58 1.57 1.78 2.16 2.25 2.11 1.97 1.94 2.00 2.30 2.03 1.51 1.36 1.38 1.40 1.50 1.40 1.43 1.43 1.43
0.18 0.21 0.23 0.27 0.37 0.52 0.66 0.83 1.14 1.33 1.44 1.59 1.75 1.90 2.03 2.13 2.09 2.01 1.94 1.80 1.64 1.55 1.58 1.63 1.63 1.72 1.86 2.02 1.99 1.88 1.87 1.82 1.69 1.85 1.82 1.59 1.39 1.29 1.37 1.42 1.47 1.49 1.57
0.31 0.34 0.37 0.47 0.54 0.60 0.70 0.84 0.99 1.08 1.24 1.44 1.59 1.77 1.93 2.03 2.05 1.99 1.86 1.65 1.49 1.43 1.50 1.63 1.67 1.72 1.71 1.79 1.76 1.69 1.70 1.68 1.59 1.72 1.69 1.70 1.68 1.33 1.22 1.27 1.35 1.41 1.40

GEFSSE_prec_meanprecacc_186.txt.gz
Total_Precipitation_Accumulation
1.39 1.07 1.69 1.76 1.61 1.43 1.34 1.32 1.46 1.52 1.49 1.38 1.37 1.29 1.18 1.02 0.87 0.78 0.69 0.67 0.65 0.60 0.60 0.61 0.63 0.66 0.65 0.61 0.68 0.75 0.78 0.68 0.68 0.69 0.61 0.62 0.72 0.71 0.71 0.93 1.40 1.80 1.18
0.83 0.84 1.63 1.76 1.56 1.40 1.30 1.34 1.55 1.58 1.58 1.47 1.33 1.22 1.09 0.92 0.82 0.74 0.70 0.65 0.64 0.62 0.61 0.60 0.61 0.68 0.70 0.65 0.71 0.79 0.76 0.73 0.79 0.85 0.85 0.87 0.81 0.77 0.77 0.89 1.28 1.58 1.16
0.65 0.74 1.23 1.68 1.56 1.43 1.37 1.37 1.45 1.52 1.48 1.26 1.20 1.16 1.04 0.90 0.81 0.75 0.68 0.63 0.60 0.63 0.57 0.54 0.57 0.66 0.69 0.73 0.72 0.71 0.68 0.75 0.83 1.01 1.41 1.88 1.34 0.95 0.93 0.87 1.05 1.09 1.02
0.69 0.74 0.96 1.53 1.60 1.51 1.42 1.39 1.39 1.39 1.37 1.21 1.13 1.06 0.97 0.91 0.84 0.81 0.72 0.65 0.56 0.51 0.52 0.53 0.53 0.58 0.62 0.64 0.68 0.66 0.63 0.73 0.85 1.04 1.48 1.94 1.78 1.32 1.14 1.07 1.16 1.04 1.02
0.73 0.80 1.07 1.58 1.57 1.51 1.49 1.50 1.54 1.42 1.36 1.21 1.03 1.00 0.97 0.94 0.85 0.81 0.74 0.63 0.55 0.54 0.51 0.52 0.52 0.57 0.64 0.64 0.61 0.62 0.66 0.80 0.98 0.91 1.19 1.62 2.04 1.71 1.26 1.27 1.35 1.17 1.10
0.77 0.83 1.09 1.46 1.49 1.48 1.49 1.52 1.49 1.35 1.26 1.15 1.00 0.98 1.02 1.01 0.91 0.85 0.76 0.67 0.59 0.59 0.56 0.56 0.56 0.64 0.66 0.64 0.63 0.69 0.81 0.88 0.87 0.96 1.23 1.58 2.03 1.79 1.41 1.32 1.24 1.34 1.22
0.79 0.81 1.01 1.40 1.45 1.47 1.38 1.22 1.24 1.24 1.17 1.05 0.97 0.93 0.94 0.93 0.89 0.83 0.86 0.79 0.70 0.68 0.64 0.63 0.62 0.61 0.63 0.66 0.69 0.77 0.88 0.86 0.86 1.09 1.18 1.51 1.61 1.57 1.37 1.28 1.32 1.52 1.41
0.88 0.80 0.89 1.22 1.32 1.29 1.24 1.18 1.24 1.23 1.12 0.97 0.89 0.87 0.87 0.90 0.83 0.77 0.76 0.74 0.74 0.74 0.72 0.67 0.65 0.58 0.60 0.70 0.76 0.84 0.97 0.90 0.83 0.95 0.98 1.27 1.61 1.60 1.27 1.22 1.30 1.49 1.57
1.19 1.01 0.91 0.99 1.13 1.18 1.24 1.25 1.33 1.36 1.25 1.07 0.89 0.86 0.86 0.77 0.66 0.62 0.67 0.70 0.71 0.71 0.72 0.70 0.69 0.64 0.65 0.76 0.81 0.89 1.01 0.92 0.92 0.92 0.81 1.22 1.67 1.50 1.22 1.09 1.14 1.31 1.43
1.21 1.17 1.06 1.00 1.05 1.07 1.14 1.32 1.48 1.60 1.63 1.35 1.01 0.93 0.83 0.68 0.61 0.63 0.63 0.68 0.74 0.79 0.77 0.76 0.77 0.74 0.79 0.82 0.84 0.89 0.90 0.80 0.84 0.83 0.91 1.14 1.60 1.49 1.19 1.04 1.02 1.02 1.11
0.84 0.91 0.97 0.98 1.04 1.00 0.99 1.14 1.42 1.61 1.72 1.40 1.00 1.01 0.89 0.64 0.63 0.69 0.69 0.85 0.93 0.96 0.94 0.95 0.98 0.97 0.96 0.89 0.92 0.98 0.81 0.60 0.72 0.86 0.97 1.24 1.61 1.53 1.19 1.02 0.85 0.84 0.88
0.67 0.63 0.65 0.67 0.73 0.80 0.83 1.08 1.37 1.43 1.52 1.22 1.02 1.05 0.99 1.03 0.96 0.75 0.74 0.98 1.13 1.18 1.09 1.07 1.14 1.06 0.93 0.77 0.78 0.80 0.66 0.63 0.70 0.78 0.89 1.34 1.67 1.54 1.23 1.01 0.81 0.78 0.78
0.51 0.48 0.47 0.48 0.49 0.60 0.82 1.08 1.31 1.38 1.40 1.41 1.43 1.28 1.24 1.19 0.99 0.81 0.78 0.84 0.92 1.01 0.97 1.06 1.08 0.94 0.85 0.74 0.72 0.67 0.59 0.70 0.86 0.81 0.97 1.38 1.69 1.57 1.35 1.16 0.92 0.86 0.84
0.53 0.51 0.44 0.37 0.38 0.47 0.62 0.84 1.12 1.19 1.24 1.29 1.28 1.07 1.15 1.15 0.96 0.90 0.99 1.03 1.00 0.99 1.14 1.18 1.16 1.12 0.94 0.77 0.74 0.78 0.73 0.70 0.87 0.95 1.10 1.24 1.60 1.73 1.53 1.33 1.14 1.06 0.98
0.62 0.70 0.65 0.51 0.44 0.49 0.54 0.57 0.70 0.79 0.89 1.15 1.23 0.96 0.94 0.95 1.00 1.03 0.95 1.09 1.16 1.16 1.17 1.18 1.10 1.06 1.06 0.93 0.94 0.98 0.96 0.80 0.85 0.92 1.04 1.06 1.30 1.71 1.80 1.64 1.46 1.25 1.12
0.47 0.58 0.63 0.61 0.63 0.62 0.54 0.44 0.43 0.48 0.61 0.75 0.77 0.73 0.76 0.78 0.88 1.06 1.00 1.00 1.08 1.26 1.32 1.26 1.17 1.21 1.21 1.04 1.05 1.13 1.09 0.98 0.99 1.02 1.10 0.98 0.89 1.09 1.48 1.75 1.76 1.56 1.34
0.37 0.40 0.48 0.55 0.61 0.66 0.69 0.64 0.50 0.50 0.55 0.57 0.57 0.62 0.70 0.70 0.83 1.00 0.96 0.88 0.87 1.04 1.24 1.37 1.40 1.37 1.24 1.14 1.14 1.16 1.07 1.05 1.05 1.18 1.18 1.13 0.93 0.76 0.96 1.26 1.52 1.61 1.59
0.37 0.33 0.38 0.40 0.48 0.58 0.69 0.76 0.70 0.64 0.59 0.53 0.50 0.47 0.50 0.52 0.61 0.81 0.89 0.81 0.82 1.00 1.23 1.43 1.54 1.58 1.44 1.39 1.43 1.34 1.17 1.13 1.10 1.21 1.23 1.24 1.22 0.97 0.83 0.83 0.98 1.24 1.43
0.34 0.32 0.31 0.33 0.37 0.45 0.56 0.62 0.61 0.59 0.55 0.54 0.53 0.42 0.39 0.42 0.53 0.74 0.93 0.98 0.98 1.10 1.24 1.28 1.50 1.60 1.68 1.60 1.47 1.37 1.27 1.27 1.24 1.18 1.31 1.28 1.28 1.20 1.03 0.75 0.67 0.76 0.99
0.33 0.32 0.31 0.32 0.32 0.36 0.39 0.46 0.51 0.47 0.46 0.51 0.49 0.48 0.51 0.58 0.65 0.85 1.08 1.18 1.30 1.34 1.41 1.57 1.86 1.88 1.78 1.79 1.63 1.45 1.31 1.31 1.35 1.38 1.36 1.31 1.36 1.23 1.09 0.91 0.77 0.55 0.63
0.28 0.27 0.27 0.31 0.32 0.29 0.26 0.31 0.36 0.36 0.45 0.53 0.59 0.64 0.69 0.72 0.80 1.03 1.24 1.48 1.62 1.52 1.55 1.76 2.03 2.20 2.05 1.91 1.97 1.85 1.68 1.50 1.46 1.43 1.40 1.42 1.42 1.34 1.23 1.17 1.05 0.88 0.73
0.16 0.18 0.23 0.23 0.22 0.21 0.20 0.25 0.33 0.40 0.46 0.60 0.75 0.85 0.87 0.86 0.91 0.97 1.18 1.39 1.48 1.55 1.61 1.74 1.97 2.31 2.19 1.96 2.13 2.46 2.26 2.03 1.62 1.33 1.44 1.49 1.51 1.44 1.31 1.17 1.13 1.07 0.99
0.15 0.16 0.18 0.20 0.20 0.19 0.25 0.42 0.70 0.94 1.02 1.04 1.06 1.20 1.29 1.25 1.20 1.18 1.21 1.37 1.46 1.60 1.69 1.74 1.78 2.08 2.22 2.09 2.10 2.58 2.52 2.29 2.12 1.66 1.36 1.41 1.50 1.56 1.52 1.41 1.28 1.21 1.14
0.14 0.18 0.18 0.19 0.23 0.24 0.38 0.70 1.09 1.41 1.50 1.50 1.63 1.67 1.73 1.66 1.51 1.49 1.49 1.59 1.56 1.54 1.56 1.59 1.59 1.80 2.16 2.26 2.12 1.99 1.97 2.03 2.32 2.05 1.54 1.39 1.41 1.42 1.52 1.42 1.44 1.43 1.44
0.20 0.24 0.27 0.31 0.42 0.55 0.68 0.84 1.14 1.34 1.45 1.59 1.76 1.90 2.03 2.13 2.09 2.01 1.94 1.81 1.64 1.56 1.59 1.64 1.64 1.73 1.86 2.03 2.00 1.89 1.89 1.84 1.71 1.87 1.83 1.61 1.42 1.32 1.40 1.44 1.48 1.50 1.58
0.33 0.37 0.41 0.50 0.58 0.64 0.73 0.84 0.99 1.08 1.24 1.44 1.60 1.77 1.93 2.04 2.05 1.99 1.86 1.65 1.49 1.43 1.50 1.64 1.67 1.72 1.71 1.80 1.77 1.69 1.71 1.69 1.60 1.75 1.72 1.73 1.70 1.36 1.25 1.30 1.37 1.43 1.42

GEFSSE_prec_meanprecacc_192.txt.gz
Total_Precipitation_Accumulation
1.41 1.13 1.80 1.87 1.71 1.49 1.38 1.39 1.53 1.62 1.58 1.46 1.44 1.36 1.23 1.06 0.91 0.80 0.72 0.71 0.68 0.64 0.63 0.64 0.68 0.70 0.70 0.67 0.73 0.80 0.83 0.73 0.72 0.71 0.63 0.64 0.75 0.75 0.74 0.95 1.43 1.82 1.20
0.86 0.90 1.72 1.87 1.64 1.47 1.35 1.40 1.62 1.68 1.68 1.56 1.41 1.29 1.14 0.97 0.86 0.76 0.74 0.68 0.67 0.64 0.63 0.63 0.65 0.72 0.75 0.70 0.74 0.82 0.80 0.77 0.82 0.87 0.87 0.89 0.84 0.81 0.81 0.93 1.32 1.62 1.19
0.67 0.79 1.30 1.78 1.64 1.51 1.45 1.45 1.54 1.62 1.57 1.35 1.27 1.22 1.10 0.95 0.85 0.78 0.70 0.66 0.63 0.65 0.58 0.55 0.60 0.69 0.74 0.78 0.76 0.74 0.71 0.77 0.87 1.04 1.43 1.89 1.34 0.98 0.97 0.90 1.10 1.16 1.07
0.70 0.77 1.00 1.60 1.68 1.59 1.51 1.49 1.48 1.46 1.43 1.27 1.18 1.13 1.03 0.98 0.89 0.84 0.75 0.68 0.58 0.53 0.53 0.56 0.55 0.60 0.65 0.68 0.73 0.71 0.66 0.77 0.88 1.07 1.49 1.95 1.78 1.35 1.17 1.10 1.19 1.08 1.07
0.75 0.83 1.13 1.66 1.65 1.60 1.57 1.57 1.61 1.49 1.42 1.27 1.08 1.06 1.02 1.01 0.90 0.87 0.78 0.66 0.58 0.56 0.53 0.56 0.55 0.59 0.67 0.67 0.65 0.66 0.68 0.82 1.00 0.92 1.19 1.62 2.05 1.76 1.32 1.31 1.39 1.21 1.15
0.80 0.87 1.14 1.54 1.59 1.56 1.55 1.57 1.55 1.42 1.33 1.22 1.05 1.04 1.08 1.06 0.96 0.90 0.81 0.71 0.62 0.62 0.57 0.59 0.60 0.68 0.70 0.67 0.66 0.74 0.86 0.91 0.88 0.96 1.23 1.59 2.04 1.83 1.46 1.37 1.27 1.36 1.26
0.82 0.85 1.09 1.48 1.52 1.54 1.45 1.28 1.30 1.31 1.23 1.10 1.03 0.99 0.99 0.98 0.94 0.88 0.90 0.83 0.73 0.70 0.65 0.64 0.64 0.64 0.67 0.71 0.74 0.82 0.93 0.89 0.86 1.09 1.19 1.53 1.63 1.60 1.40 1.31 1.36 1.55 1.44
0.90 0.83 0.94 1.28 1.37 1.36 1.29 1.24 1.30 1.28 1.17 1.02 0.94 0.92 0.92 0.94 0.86 0.79 0.77 0.76 0.76 0.76 0.73 0.68 0.67 0.60 0.63 0.74 0.80 0.89 1.02 0.94 0.83 0.95 0.99 1.29 1.63 1.64 1.31 1.26 1.35 1.52 1.61
1.23 1.05 0.93 1.02 1.17 1.24 1.31 1.31 1.38 1.39 1.28 1.11 0.95 0.92 0.90 0.82 0.69 0.63 0.68 0.71 0.73 0.72 0.73 0.72 0.71 0.66 0.68 0.80 0.86 0.96 1.07 0.96 0.93 0.93 0.81 1.25 1.70 1.54 1.25 1.13 1.18 1.34 1.46
1.22 1.19 1.07 1.01 1.06 1.11 1.20 1.39 1.53 1.63 1.67 1.39 1.06 0.98 0.87 0.72 0.63 0.66 0.66 0.71 0.76 0.81 0.79 0.79 0.80 0.77 0.84 0.86 0.90 0.95 0.94 0.82 0.85 0.83 0.94 1.19 1.64 1.52 1.22 1.06 1.04 1.05 1.14
0.84 0.92 0.98 0.98 1.05 1.02 1.04 1.18 1.46 1.65 1.78 1.46 1.04 1.06 0.91 0.65 0.64 0.71 0.71 0.88 0.96 0.98 0.96 0.99 1.01 1.01 1.00 0.94 0.99 1.03 0.83 0.60 0.72 0.87 1.01 1.28 1.64 1.56 1.23 1.05 0.88 0.87 0.91
0.67 0.63 0.65 0.68 0.74 0.81 0.88 1.13 1.39 1.46 1.57 1.28 1.06 1.10 1.00 1.03 0.96 0.75 0.76 1.01 1.17 1.22 1.12 1.10 1.17 1.09 0.93 0.78 0.80 0.82 0.67 0.63 0.70 0.80 0.94 1.39 1.72 1.58 1.26 1.05 0.85 0.82 0.82
0.51 0.49 0.47 0.49 0.50 0.61 0.84 1.12 1.35 1.43 1.50 1.48 1.49 1.32 1.25 1.19 0.99 0.82 0.78 0.85 0.94 1.03 0.98 1.08 1.09 0.94 0.85 0.75 0.73 0.67 0.60 0.71 0.87 0.82 1.01 1.43 1.76 1.63 1.39 1.19 0.94 0.89 0.88
0.54 0.52 0.45 0.37 0.38 0.48 0.63 0.85 1.15 1.28 1.35 1.36 1.35 1.11 1.16 1.16 0.97 0.91 1.00 1.04 1.00 0.99 1.14 1.19 1.17 1.12 0.94 0.77 0.75 0.78 0.73 0.71 0.87 0.96 1.12 1.28 1.67 1.82 1.60 1.38 1.17 1.11 1.05
0.63 0.70 0.66 0.51 0.45 0.50 0.56 0.59 0.75 0.91 0.98 1.20 1.28 0.98 0.95 0.96 1.00 1.03 0.95 1.10 1.16 1.17 1.17 1.18 1.10 1.06 1.07 0.94 0.95 0.99 0.97 0.81 0.86 0.93 1.05 1.10 1.37 1.81 1.92 1.72 1.54 1.34 1.23
0.48 0.59 0.63 0.62 0.64 0.63 0.55 0.47 0.48 0.54 0.65 0.77 0.80 0.74 0.77 0.79 0.89 1.07 1.01 1.00 1.08 1.26 1.32 1.27 1.17 1.22 1.23 1.06 1.07 1.15 1.11 1.00 1.01 1.03 1.11 1.00 0.94 1.18 1.57 1.82 1.83 1.67 1.47
0.40 0.42 0.50 0.55 0.62 0.67 0.71 0.66 0.52 0.52 0.58 0.59 0.60 0.64 0.70 0.70 0.83 1.00 0.96 0.88 0.88 1.05 1.24 1.37 1.40 1.38 1.25 1.16 1.16 1.18 1.11 1.09 1.07 1.20 1.20 1.15 0.96 0.81 1.01 1.30 1.57 1.68 1.69
0.39 0.37 0.41 0.42 0.49 0.60 0.73 0.78 0.72 0.67 0.62 0.56 0.53 0.48 0.51 0.52 0.61 0.81 0.89 0.81 0.82 1.01 1.23 1.43 1.55 1.58 1.45 1.41 1.45 1.36 1.19 1.16 1.14 1.24 1.24 1.25 1.24 0.99 0.85 0.84 1.00 1.27 1.48
0.36 0.35 0.35 0.37 0.40 0.48 0.60 0.66 0.64 0.61 0.57 0.55 0.54 0.43 0.40 0.42 0.53 0.74 0.93 0.98 0.99 1.10 1.24 1.29 1.51 1.61 1.68 1.60 1.48 1.38 1.29 1.29 1.28 1.21 1.33 1.30 1.29 1.21 1.04 0.76 0.69 0.78 1.02
0.35 0.35 0.35 0.35 0.36 0.39 0.42 0.49 0.53 0.48 0.47 0.52 0.50 0.49 0.52 0.59 0.65 0.85 1.09 1.18 1.30 1.34 1.41 1.57 1.87 1.90 1.79 1.80 1.64 1.46 1.32 1.33 1.37 1.40 1.38 1.33 1.36 1.24 1.09 0.91 0.78 0.56 0.65
0.29 0.30 0.31 0.34 0.35 0.33 0.29 0.33 0.38 0.37 0.46 0.53 0.59 0.64 0.70 0.73 0.80 1.03 1.24 1.49 1.63 1.52 1.55 1.76 2.03 2.21 2.06 1.92 1.98 1.87 1.71 1.53 1.48 1.44 1.41 1.43 1.43 1.35 1.24 1.19 1.05 0.89 0.74
0.18 0.21 0.27 0.27 0.26 0.25 0.23 0.27 0.34 0.41 0.47 0.60 0.75 0.85 0.88 0.86 0.91 0.97 1.18 1.40 1.49 1.55 1.61 1.74 1.97 2.32 2.20 1.98 2.14 2.49 2.28 2.05 1.64 1.35 1.46 1.50 1.52 1.44 1.32 1.18 1.14 1.07 1.00
0.16 0.18 0.22 0.25 0.25 0.23 0.29 0.46 0.72 0.96 1.04 1.05 1.06 1.20 1.29 1.26 1.21 1.18 1.21 1.37 1.47 1.61 1.69 1.74 1.78 2.08 2.22 2.10 2.11 2.59 2.52 2.29 2.13 1.68 1.37 1.42 1.51 1.57 1.53 1.41 1.28 1.21 1.15
0.15 0.19 0.21 0.23 0.28 0.29 0.43 0.75 1.13 1.43 1.51 1.51 1.63 1.67 1.74 1.66 1.52 1.49 1.50 1.59 1.56 1.55 1.56 1.60 1.59 1.80 2.17 2.26 2.12 1.99 1.97 2.04 2.33 2.06 1.56 1.40 1.42 1.44 1.54 1.44 1.45 1.44 1.46
0.22 0.26 0.29 0.34 0.46 0.61 0.75 0.91 1.19 1.37 1.46 1.60 1.76 1.90 2.03 2.13 2.09 2.01 1.95 1.81 1.64 1.56 1.59 1.64 1.64 1.73 1.86 2.03 2.00 1.90 1.89 1.84 1.71 1.88 1.85 1.61 1.43 1.33 1.41 1.47 1.51 1.52 1.60
0.36 0.40 0.44 0.54 0.63 0.69 0.80 0.92 1.06 1.13 1.27 1.45 1.60 1.78 1.93 2.04 2.06 2.00 1.87 1.65 1.49 1.44 1.51 1.64 1.68 1.72 1.72 1.80 1.79 1.71 1.71 1.69 1.61 1.76 1.73 1.73 1.71 1.37 1.26 1.33 1.41 1.46 1.44

GEFSSE_prec_meanprecacc_198.txt.gz
Total_Precipitation_Accumulation
1.43 1.16 1.87 1.97 1.82 1.60 1.48 1.48 1.62 1.70 1.68 1.56 1.54 1.45 1.31 1.12 0.97 0.87 0.78 0.76 0.72 0.69 0.67 0.68 0.72 0.75 0.74 0.73 0.78 0.84 0.88 0.78 0.77 0.77 0.68 0.69 0.83 0.83 0.80 1.01 1.47 1.86 1.22
0.87 0.92 1.78 1.97 1.74 1.57 1.43 1.47 1.70 1.76 1.79 1.68 1.53 1.41 1.26 1.05 0.92 0.83 0.81 0.73 0.70 0.67 0.67 0.66 0.69 0.77 0.81 0.75 0.80 0.87 0.85 0.82 0.87 0.91 0.92 0.94 0.88 0.87 0.85 0.97 1.35 1.68 1.24
0.68 0.80 1.36 1.87 1.72 1.61 1.56 1.54 1.63 1.72 1.70 1.50 1.42 1.33 1.21 1.04 0.90 0.83 0.76 0.69 0.66 0.69 0.62 0.59 0.64 0.73 0.78 0.82 0.81 0.79 0.74 0.80 0.89 1.07 1.46 1.93 1.38 1.02 1.03 0.97 1.16 1.20 1.12
0.72 0.78 1.04 1.68 1.73 1.67 1.63 1.60 1.58 1.56 1.54 1.38 1.30 1.23 1.12 1.09 0.96 0.90 0.80 0.73 0.63 0.57 0.57 0.60 0.59 0.64 0.69 0.72 0.78 0.75 0.69 0.79 0.89 1.08 1.52 1.98 1.81 1.37 1.22 1.16 1.25 1.12 1.10
0.76 0.84 1.17 1.74 1.72 1.67 1.66 1.65 1.70 1.57 1.51 1.34 1.16 1.13 1.08 1.08 0.97 0.93 0.83 0.72 0.64 0.61 0.57 0.60 0.60 0.64 0.72 0.72 0.69 0.69 0.71 0.84 1.02 0.94 1.21 1.66 2.10 1.80 1.35 1.35 1.43 1.25 1.19
0.81 0.90 1.20 1.61 1.66 1.64 1.64 1.65 1.61 1.48 1.40 1.28 1.11 1.08 1.11 1.11 1.02 0.95 0.86 0.77 0.69 0.69 0.64 0.63 0.66 0.72 0.75 0.73 0.72 0.79 0.89 0.92 0.89 0.98 1.25 1.60 2.07 1.88 1.48 1.41 1.32 1.40 1.30
0.83 0.87 1.15 1.54 1.60 1.61 1.52 1.37 1.38 1.39 1.29 1.15 1.08 1.04 1.06 1.03 0.99 0.93 0.96 0.89 0.79 0.74 0.69 0.69 0.70 0.70 0.73 0.76 0.80 0.88 0.96 0.90 0.87 1.10 1.21 1.55 1.67 1.63 1.43 1.34 1.39 1.58 1.47
0.92 0.85 0.97 1.31 1.42 1.42 1.36 1.31 1.36 1.33 1.23 1.08 1.00 0.98 0.98 0.99 0.90 0.83 0.82 0.80 0.80 0.79 0.75 0.71 0.71 0.63 0.66 0.78 0.85 0.94 1.05 0.95 0.85 0.96 1.01 1.33 1.67 1.68 1.36 1.30 1.38 1.56 1.64
1.24 1.06 0.95 1.03 1.19 1.27 1.36 1.37 1.45 1.45 1.34 1.17 1.00 0.98 0.96 0.87 0.72 0.66 0.72 0.76 0.76 0.75 0.76 0.74 0.74 0.68 0.70 0.84 0.91 1.01 1.10 0.97 0.94 0.94 0.84 1.31 1.75 1.59 1.30 1.17 1.21 1.37 1.49
1.23 1.20 1.08 1.02 1.07 1.12 1.22 1.43 1.60 1.70 1.73 1.45 1.11 1.03 0.93 0.77 0.67 0.70 0.70 0.75 0.80 0.84 0.82 0.83 0.84 0.82 0.89 0.92 0.96 0.99 0.97 0.83 0.86 0.85 0.98 1.25 1.68 1.57 1.26 1.09 1.08 1.07 1.16
0.85 0.92 0.98 0.99 1.05 1.04 1.06 1.21 1.50 1.69 1.82 1.49 1.07 1.09 0.94 0.68 0.67 0.74 0.74 0.92 1.01 1.02 1.01 1.04 1.05 1.06 1.05 0.99 1.03 1.05 0.84 0.61 0.74 0.90 1.08 1.34 1.69 1.61 1.27 1.08 0.90 0.89 0.93
0.67 0.64 0.66 0.68 0.75 0.83 0.90 1.16 1.44 1.49 1.61 1.31 1.09 1.12 1.02 1.05 0.98 0.77 0.78 1.05 1.20 1.24 1.16 1.15 1.20 1.12 0.95 0.79 0.82 0.83 0.68 0.65 0.73 0.84 1.01 1.45 1.77 1.63 1.30 1.08 0.87 0.84 0.84
0.51 0.49 0.47 0.49 0.51 0.61 0.86 1.15 1.40 1.49 1.56 1.52 1.52 1.35 1.27 1.20 1.01 0.83 0.80 0.86 0.96 1.05 0.99 1.10 1.10 0.94 0.86 0.75 0.74 0.69 0.62 0.73 0.90 0.86 1.05 1.49 1.81 1.69 1.44 1.22 0.96 0.91 0.90
0.54 0.52 0.45 0.37 0.39 0.49 0.65 0.86 1.18 1.34 1.42 1.41 1.38 1.14 1.18 1.17 0.99 0.92 1.01 1.05 1.01 1.00 1.15 1.20 1.17 1.12 0.95 0.78 0.76 0.80 0.76 0.74 0.90 0.99 1.16 1.33 1.72 1.90 1.69 1.44 1.21 1.13 1.07
0.63 0.71 0.66 0.51 0.46 0.51 0.57 0.60 0.76 0.93 1.02 1.27 1.34 1.02 0.97 0.98 1.03 1.06 0.97 1.11 1.18 1.17 1.18 1.19 1.11 1.07 1.08 0.95 0.96 1.01 0.99 0.84 0.89 0.95 1.08 1.13 1.42 1.89 2.02 1.81 1.59 1.39 1.27
0.48 0.59 0.64 0.62 0.65 0.64 0.56 0.48 0.48 0.55 0.68 0.83 0.87 0.78 0.78 0.80 0.91 1.09 1.03 1.01 1.09 1.27 1.33 1.28 1.18 1.24 1.25 1.08 1.08 1.16 1.12 1.02 1.03 1.05 1.13 1.03 0.98 1.26 1.68 1.90 1.89 1.74 1.53
0.40 0.43 0.50 0.56 0.62 0.67 0.72 0.67 0.53 0.53 0.60 0.63 0.64 0.67 0.72 0.71 0.84 1.01 0.97 0.89 0.89 1.05 1.25 1.39 1.42 1.42 1.27 1.18 1.17 1.20 1.12 1.10 1.09 1.22 1.22 1.17 0.99 0.86 1.07 1.35 1.62 1.75 1.75
0.39 0.37 0.42 0.43 0.50 0.61 0.74 0.79 0.74 0.69 0.65 0.60 0.56 0.51 0.53 0.53 0.62 0.82 0.90 0.83 0.83 1.02 1.24 1.45 1.57 1.63 1.48 1.43 1.47 1.38 1.21 1.17 1.16 1.27 1.27 1.26 1.26 1.02 0.87 0.87 1.03 1.30 1.51
0.36 0.36 0.36 0.39 0.41 0.50 0.62 0.68 0.66 0.63 0.60 0.59 0.57 0.46 0.43 0.44 0.54 0.75 0.95 1.00 1.00 1.11 1.25 1.30 1.52 1.63 1.70 1.64 1.50 1.39 1.30 1.31 1.30 1.23 1.35 1.31 1.29 1.22 1.05 0.78 0.70 0.79 1.05
0.35 0.35 0.36 0.37 0.38 0.41 0.44 0.51 0.55 0.50 0.50 0.56 0.54 0.53 0.55 0.61 0.67 0.85 1.09 1.19 1.31 1.35 1.43 1.59 1.89 1.91 1.81 1.83 1.66 1.46 1.33 1.35 1.39 1.42 1.39 1.33 1.37 1.24 1.09 0.92 0.79 0.58 0.67
0.30 0.30 0.33 0.36 0.36 0.34 0.30 0.35 0.40 0.39 0.48 0.56 0.62 0.67 0.73 0.75 0.82 1.03 1.25 1.50 1.64 1.54 1.56 1.78 2.05 2.22 2.07 1.94 2.00 1.88 1.73 1.54 1.50 1.46 1.42 1.44 1.44 1.36 1.25 1.20 1.07 0.91 0.76
0.18 0.22 0.28 0.29 0.28 0.26 0.24 0.28 0.36 0.42 0.48 0.62 0.77 0.87 0.90 0.88 0.94 0.99 1.20 1.41 1.50 1.57 1.63 1.75 1.99 2.33 2.21 1.99 2.16 2.51 2.31 2.08 1.67 1.36 1.47 1.51 1.53 1.46 1.34 1.19 1.16 1.10 1.04
0.17 0.18 0.22 0.26 0.27 0.26 0.31 0.48 0.73 0.97 1.06 1.08 1.09 1.23 1.31 1.28 1.24 1.21 1.24 1.39 1.48 1.62 1.72 1.77 1.80 2.09 2.23 2.11 2.12 2.61 2.55 2.33 2.16 1.71 1.39 1.43 1.52 1.58 1.55 1.43 1.30 1.24 1.18
0.16 0.20 0.22 0.24 0.30 0.32 0.47 0.77 1.14 1.45 1.53 1.53 1.66 1.69 1.75 1.68 1.54 1.53 1.52 1.62 1.58 1.55 1.58 1.61 1.60 1.82 2.18 2.28 2.13 2.00 1.98 2.06 2.36 2.10 1.58 1.41 1.43 1.44 1.55 1.45 1.46 1.48 1.50
0.22 0.27 0.31 0.36 0.48 0.64 0.78 0.94 1.22 1.39 1.48 1.62 1.77 1.92 2.05 2.15 2.10 2.03 1.97 1.84 1.67 1.58 1.60 1.65 1.65 1.74 1.88 2.05 2.02 1.91 1.90 1.86 1.74 1.91 1.87 1.63 1.44 1.33 1.42 1.48 1.53 1.55 1.64
0.37 0.42 0.45 0.56 0.64 0.72 0.83 0.95 1.09 1.15 1.29 1.47 1.62 1.80 1.96 2.07 2.07 2.01 1.88 1.67 1.51 1.46 1.52 1.66 1.69 1.74 1.74 1.82 1.81 1.73 1.73 1.71 1.63 1.78 1.75 1.74 1.72 1.37 1.27 1.34 1.42 1.48 1.48

GEFSSE_prec_meanprecacc_204.txt.gz
Total_Precipitation_Accumulation
1.50 1.19 1.90 2.01 1.86 1.65 1.52 1.52 1.66 1.76 1.75 1.62 1.60 1.53 1.37 1.16 1.01 0.92 0.83 0.80 0.76 0.73 0.72 0.72 0.79 0.81 0.79 0.79 0.84 0.89 0.93 0.81 0.81 0.80 0.71 0.72 0.86 0.87 0.83 1.06 1.55 1.95 1.25
0.91 0.95 1.82 2.00 1.78 1.62 1.47 1.53 1.75 1.81 1.86 1.75 1.59 1.48 1.32 1.11 0.96 0.86 0.86 0.78 0.75 0.73 0.72 0.72 0.77 0.86 0.88 0.83 0.88 0.93 0.89 0.85 0.89 0.95 0.96 0.97 0.92 0.90 0.87 1.00 1.43 1.75 1.28
0.70 0.84 1.39 1.91 1.74 1.64 1.61 1.61 1.70 1.81 1.80 1.59 1.48 1.38 1.26 1.09 0.96 0.87 0.82 0.75 0.70 0.73 0.66 0.65 0.71 0.80 0.84 0.88 0.88 0.84 0.79 0.83 0.91 1.11 1.54 2.03 1.45 1.06 1.06 1.01 1.22 1.25 1.16
0.75 0.81 1.07 1.72 1.77 1.70 1.67 1.67 1.65 1.65 1.61 1.43 1.35 1.28 1.17 1.14 1.03 0.95 0.85 0.76 0.66 0.60 0.61 0.66 0.65 0.71 0.75 0.77 0.82 0.79 0.73 0.82 0.92 1.15 1.63 2.12 1.91 1.41 1.25 1.21 1.31 1.16 1.14
0.80 0.86 1.20 1.79 1.77 1.71 1.70 1.71 1.77 1.63 1.55 1.37 1.20 1.18 1.13 1.12 1.02 0.97 0.88 0.77 0.67 0.64 0.61 0.65 0.67 0.71 0.79 0.78 0.75 0.73 0.73 0.86 1.06 1.01 1.33 1.78 2.21 1.86 1.39 1.40 1.47 1.29 1.24
0.84 0.92 1.23 1.65 1.70 1.68 1.68 1.69 1.66 1.53 1.43 1.31 1.15 1.13 1.16 1.14 1.05 0.98 0.89 0.81 0.73 0.73 0.69 0.68 0.71 0.78 0.82 0.80 0.78 0.83 0.90 0.94 0.94 1.07 1.37 1.72 2.15 1.93 1.52 1.45 1.37 1.45 1.36
0.85 0.89 1.16 1.56 1.63 1.63 1.55 1.40 1.40 1.42 1.33 1.19 1.12 1.08 1.09 1.06 1.01 0.96 0.98 0.92 0.82 0.78 0.74 0.75 0.77 0.77 0.78 0.81 0.85 0.92 0.98 0.92 0.92 1.17 1.30 1.64 1.72 1.67 1.45 1.36 1.42 1.62 1.51
0.93 0.86 0.97 1.32 1.44 1.44 1.38 1.33 1.38 1.37 1.27 1.12 1.04 1.01 1.01 1.01 0.93 0.85 0.84 0.82 0.81 0.81 0.79 0.76 0.76 0.68 0.70 0.81 0.87 0.97 1.07 0.98 0.88 1.04 1.10 1.40 1.72 1.73 1.40 1.34 1.41 1.59 1.67
1.26 1.07 0.95 1.04 1.20 1.29 1.38 1.39 1.47 1.48 1.37 1.20 1.03 1.00 0.97 0.89 0.75 0.68 0.73 0.77 0.77 0.76 0.78 0.78 0.78 0.72 0.73 0.86 0.92 1.02 1.11 0.99 0.99 1.02 0.90 1.36 1.81 1.63 1.34 1.21 1.25 1.40 1.51
1.24 1.21 1.09 1.04 1.09 1.15 1.26 1.45 1.62 1.72 1.76 1.48 1.14 1.06 0.96 0.79 0.70 0.72 0.72 0.77 0.81 0.86 0.86 0.87 0.90 0.87 0.94 0.95 0.97 1.00 0.98 0.86 0.91 0.90 1.05 1.30 1.74 1.62 1.31 1.13 1.13 1.11 1.18
0.86 0.94 0.99 1.00 1.08 1.08 1.11 1.23 1.53 1.71 1.85 1.52 1.09 1.11 0.98 0.73 0.70 0.77 0.77 0.96 1.03 1.04 1.03 1.07 1.09 1.09 1.07 1.01 1.04 1.06 0.86 0.65 0.79 0.96 1.13 1.39 1.75 1.66 1.31 1.12 0.95 0.93 0.96
0.69 0.64 0.67 0.69 0.77 0.86 0.93 1.19 1.49 1.53 1.64 1.34 1.11 1.14 1.07 1.10 1.02 0.80 0.81 1.08 1.22 1.26 1.18 1.17 1.24 1.13 0.97 0.81 0.83 0.85 0.71 0.69 0.78 0.90 1.06 1.51 1.83 1.67 1.34 1.13 0.91 0.87 0.88
0.52 0.49 0.48 0.50 0.52 0.64 0.89 1.18 1.44 1.53 1.62 1.57 1.55 1.38 1.32 1.25 1.05 0.87 0.83 0.89 0.98 1.08 1.02 1.11 1.12 0.96 0.87 0.77 0.75 0.71 0.66 0.77 0.95 0.92 1.10 1.54 1.87 1.74 1.50 1.27 1.01 0.93 0.92
0.55 0.52 0.45 0.38 0.40 0.50 0.67 0.89 1.21 1.38 1.47 1.47 1.43 1.16 1.21 1.21 1.04 0.97 1.06 1.09 1.06 1.05 1.19 1.23 1.20 1.14 0.96 0.78 0.77 0.82 0.78 0.78 0.96 1.05 1.21 1.38 1.77 1.98 1.78 1.51 1.27 1.17 1.11
0.64 0.71 0.67 0.52 0.47 0.52 0.58 0.61 0.78 0.95 1.06 1.31 1.38 1.05 0.99 1.01 1.08 1.11 1.01 1.15 1.22 1.22 1.22 1.22 1.14 1.10 1.10 0.96 0.97 1.02 1.02 0.87 0.94 1.00 1.12 1.17 1.47 1.99 2.13 1.89 1.66 1.45 1.33
0.50 0.60 0.65 0.64 0.66 0.65 0.57 0.49 0.49 0.56 0.70 0.85 0.90 0.80 0.79 0.82 0.94 1.12 1.05 1.04 1.12 1.31 1.36 1.30 1.20 1.27 1.27 1.10 1.10 1.18 1.15 1.05 1.06 1.09 1.17 1.06 1.01 1.33 1.76 1.96 1.95 1.80 1.59
0.41 0.45 0.53 0.58 0.63 0.68 0.73 0.68 0.53 0.54 0.61 0.65 0.66 0.68 0.73 0.72 0.85 1.02 1.00 0.93 0.93 1.09 1.27 1.41 1.44 1.46 1.30 1.20 1.18 1.22 1.15 1.13 1.11 1.25 1.25 1.19 1.02 0.91 1.14 1.40 1.67 1.79 1.80
0.39 0.39 0.45 0.45 0.51 0.61 0.74 0.80 0.74 0.70 0.66 0.61 0.57 0.51 0.54 0.54 0.63 0.83 0.91 0.86 0.85 1.03 1.26 1.48 1.62 1.68 1.52 1.47 1.49 1.40 1.24 1.20 1.19 1.29 1.30 1.28 1.28 1.04 0.90 0.89 1.05 1.32 1.54
0.36 0.37 0.39 0.42 0.44 0.51 0.62 0.69 0.66 0.64 0.61 0.60 0.59 0.47 0.44 0.44 0.55 0.76 0.97 1.02 1.01 1.14 1.27 1.32 1.57 1.69 1.76 1.67 1.54 1.42 1.33 1.35 1.33 1.26 1.37 1.32 1.30 1.23 1.06 0.79 0.70 0.80 1.07
0.36 0.36 0.38 0.40 0.40 0.42 0.44 0.52 0.55 0.51 0.51 0.57 0.55 0.54 0.57 0.62 0.67 0.86 1.11 1.21 1.33 1.37 1.45 1.63 1.94 1.95 1.85 1.87 1.71 1.50 1.37 1.38 1.41 1.44 1.41 1.34 1.38 1.25 1.10 0.94 0.81 0.59 0.69
0.30 0.31 0.34 0.37 0.38 0.35 0.32 0.37 0.41 0.40 0.49 0.58 0.64 0.69 0.75 0.77 0.83 1.04 1.26 1.52 1.66 1.56 1.59 1.82 2.09 2.26 2.10 1.97 2.04 1.93 1.76 1.57 1.53 1.47 1.44 1.46 1.45 1.38 1.27 1.21 1.09 0.93 0.79
0.18 0.23 0.29 0.29 0.29 0.26 0.24 0.29 0.37 0.43 0.50 0.64 0.79 0.89 0.92 0.91 0.96 1.00 1.21 1.43 1.51 1.59 1.65 1.79 2.03 2.38 2.23 2.00 2.20 2.57 2.36 2.13 1.70 1.38 1.48 1.53 1.55 1.48 1.36 1.22 1.19 1.12 1.06
0.17 0.19 0.23 0.26 0.28 0.26 0.31 0.48 0.74 0.98 1.07 1.11 1.13 1.26 1.33 1.30 1.26 1.23 1.25 1.41 1.51 1.64 1.74 1.79 1.82 2.12 2.25 2.13 2.14 2.66 2.61 2.40 2.22 1.75 1.41 1.44 1.54 1.60 1.57 1.45 1.33 1.28 1.22
0.16 0.20 0.23 0.24 0.30 0.33 0.47 0.78 1.16 1.46 1.56 1.55 1.68 1.72 1.78 1.70 1.56 1.55 1.55 1.64 1.61 1.58 1.61 1.63 1.62 1.84 2.22 2.31 2.15 2.02 2.01 2.10 2.43 2.15 1.62 1.44 1.45 1.46 1.57 1.48 1.50 1.52 1.54
0.22 0.28 0.31 0.36 0.49 0.65 0.79 0.95 1.23 1.40 1.49 1.62 1.79 1.95 2.10 2.19 2.12 2.05 1.99 1.86 1.69 1.60 1.62 1.67 1.67 1.78 1.92 2.08 2.05 1.93 1.92 1.89 1.79 1.97 1.91 1.65 1.45 1.35 1.44 1.51 1.55 1.56 1.65
0.37 0.42 0.46 0.56 0.65 0.74 0.84 0.96 1.10 1.16 1.29 1.49 1.64 1.83 2.00 2.12 2.10 2.03 1.90 1.70 1.54 1.48 1.54 1.68 1.71 1.77 1.77 1.85 1.83 1.75 1.76 1.73 1.67 1.83 1.79 1.77 1.73 1.39 1.29 1.37 1.45 1.49 1.49

GEFSSE_prec_meanprecacc_210.txt.gz
Total_Precipitation_Accumulation
1.55 1.24 1.99 2.07 1.89 1.68 1.56 1.55 1.69 1.78 1.77 1.64 1.62 1.55 1.38 1.18 1.03 0.94 0.85 0.82 0.78 0.75 0.74 0.75 0.83 0.85 0.83 0.82 0.89 0.92 0.95 0.85 0.83 0.82 0.75 0.75 0.88 0.88 0.85 1.09 1.58 1.97 1.30
0.96 1.00 1.89 2.04 1.80 1.65 1.51 1.56 1.78 1.84 1.89 1.78 1.61 1.49 1.33 1.12 0.98 0.88 0.87 0.80 0.77 0.75 0.75 0.76 0.81 0.90 0.92 0.87 0.92 0.98 0.92 0.88 0.93 0.98 0.99 1.00 0.95 0.93 0.90 1.03 1.46 1.78 1.33
0.73 0.87 1.44 1.96 1.77 1.69 1.64 1.64 1.72 1.83 1.81 1.61 1.49 1.39 1.26 1.10 0.96 0.88 0.83 0.77 0.72 0.75 0.68 0.67 0.74 0.83 0.88 0.91 0.91 0.87 0.81 0.86 0.96 1.16 1.58 2.05 1.47 1.08 1.08 1.04 1.27 1.28 1.20
0.76 0.82 1.09 1.76 1.79 1.72 1.69 1.68 1.67 1.66 1.63 1.44 1.36 1.29 1.18 1.15 1.04 0.96 0.87 0.79 0.68 0.63 0.63 0.67 0.66 0.73 0.76 0.79 0.84 0.80 0.74 0.85 0.98 1.20 1.66 2.14 1.93 1.46 1.28 1.25 1.36 1.19 1.16
0.82 0.87 1.23 1.84 1.81 1.74 1.72 1.72 1.78 1.65 1.58 1.39 1.21 1.20 1.15 1.13 1.03 0.98 0.89 0.79 0.70 0.66 0.62 0.66 0.69 0.73 0.81 0.80 0.76 0.75 0.75 0.89 1.11 1.04 1.34 1.80 2.23 1.90 1.42 1.43 1.50 1.33 1.27
0.87 0.94 1.25 1.68 1.74 1.73 1.73 1.72 1.67 1.54 1.45 1.33 1.17 1.16 1.18 1.16 1.06 0.99 0.91 0.84 0.75 0.76 0.71 0.69 0.73 0.80 0.85 0.84 0.81 0.86 0.93 0.97 0.96 1.08 1.38 1.74 2.18 1.97 1.55 1.46 1.39 1.46 1.37
0.88 0.91 1.17 1.58 1.65 1.67 1.58 1.43 1.42 1.44 1.34 1.20 1.14 1.10 1.11 1.08 1.03 0.97 1.00 0.94 0.84 0.80 0.76 0.77 0.79 0.79 0.80 0.84 0.87 0.95 1.02 0.96 0.93 1.18 1.32 1.66 1.76 1.73 1.48 1.37 1.44 1.64 1.52
0.95 0.87 0.98 1.33 1.46 1.47 1.42 1.36 1.39 1.38 1.28 1.12 1.05 1.03 1.02 1.03 0.94 0.87 0.86 0.84 0.83 0.82 0.81 0.77 0.78 0.70 0.71 0.82 0.90 1.01 1.13 1.02 0.90 1.06 1.12 1.43 1.78 1.79 1.43 1.36 1.43 1.61 1.69
1.27 1.08 0.96 1.05 1.21 1.31 1.40 1.42 1.49 1.49 1.39 1.21 1.04 1.02 1.00 0.90 0.76 0.70 0.76 0.80 0.81 0.78 0.80 0.80 0.81 0.75 0.76 0.90 0.98 1.07 1.17 1.04 1.01 1.04 0.93 1.40 1.88 1.68 1.37 1.23 1.27 1.44 1.54
1.27 1.22 1.10 1.05 1.09 1.16 1.27 1.47 1.65 1.74 1.77 1.49 1.16 1.08 0.98 0.81 0.72 0.73 0.74 0.79 0.84 0.87 0.87 0.89 0.93 0.90 0.97 0.97 1.00 1.04 1.01 0.88 0.91 0.91 1.07 1.34 1.81 1.68 1.34 1.17 1.15 1.14 1.21
0.90 0.97 1.01 1.01 1.09 1.09 1.12 1.24 1.55 1.74 1.87 1.54 1.11 1.13 1.00 0.74 0.71 0.77 0.79 0.99 1.06 1.06 1.06 1.10 1.13 1.12 1.09 1.03 1.07 1.09 0.87 0.66 0.80 0.97 1.17 1.45 1.81 1.71 1.33 1.15 0.98 0.96 0.99
0.72 0.67 0.69 0.71 0.78 0.87 0.93 1.20 1.51 1.56 1.67 1.36 1.12 1.15 1.08 1.11 1.03 0.81 0.83 1.12 1.26 1.30 1.22 1.21 1.27 1.16 0.98 0.82 0.84 0.86 0.73 0.71 0.81 0.92 1.10 1.56 1.90 1.71 1.37 1.15 0.93 0.89 0.90
0.54 0.51 0.49 0.52 0.52 0.65 0.91 1.20 1.47 1.56 1.64 1.59 1.56 1.39 1.33 1.26 1.06 0.88 0.84 0.91 1.00 1.10 1.04 1.13 1.14 0.98 0.89 0.78 0.76 0.72 0.67 0.79 0.97 0.94 1.15 1.61 1.93 1.78 1.53 1.30 1.03 0.96 0.95
0.57 0.54 0.46 0.39 0.40 0.51 0.69 0.91 1.22 1.39 1.49 1.48 1.44 1.18 1.22 1.23 1.05 0.99 1.08 1.11 1.07 1.07 1.21 1.24 1.22 1.16 0.98 0.81 0.79 0.83 0.81 0.80 0.98 1.07 1.25 1.44 1.82 2.03 1.83 1.54 1.30 1.21 1.15
0.65 0.73 0.67 0.52 0.47 0.52 0.59 0.64 0.79 0.96 1.07 1.33 1.41 1.08 1.01 1.03 1.10 1.13 1.03 1.16 1.23 1.24 1.25 1.24 1.16 1.12 1.12 0.98 0.99 1.03 1.04 0.91 0.97 1.01 1.14 1.21 1.52 2.05 2.19 1.93 1.72 1.51 1.40
0.50 0.61 0.65 0.64 0.66 0.65 0.57 0.51 0.51 0.57 0.71 0.87 0.92 0.82 0.81 0.83 0.96 1.14 1.07 1.06 1.14 1.32 1.38 1.32 1.23 1.29 1.29 1.12 1.11 1.19 1.16 1.08 1.08 1.10 1.19 1.11 1.10 1.44 1.84 2.03 2.03 1.88 1.68
0.41 0.45 0.53 0.58 0.63 0.68 0.73 0.69 0.54 0.55 0.63 0.67 0.68 0.69 0.75 0.73 0.86 1.05 1.02 0.95 0.96 1.12 1.30 1.44 1.48 1.48 1.31 1.22 1.20 1.23 1.16 1.14 1.14 1.30 1.28 1.24 1.09 1.01 1.24 1.49 1.75 1.86 1.87
0.39 0.40 0.46 0.46 0.51 0.61 0.75 0.81 0.75 0.71 0.68 0.63 0.58 0.52 0.55 0.56 0.64 0.85 0.93 0.88 0.88 1.05 1.29 1.51 1.65 1.70 1.54 1.49 1.52 1.42 1.25 1.22 1.21 1.32 1.31 1.29 1.30 1.07 0.95 0.95 1.10 1.36 1.58
0.37 0.38 0.40 0.42 0.44 0.51 0.63 0.69 0.66 0.65 0.62 0.61 0.60 0.48 0.44 0.46 0.55 0.77 0.98 1.04 1.03 1.16 1.29 1.34 1.59 1.70 1.77 1.69 1.55 1.44 1.36 1.37 1.35 1.27 1.38 1.34 1.32 1.25 1.07 0.81 0.72 0.82 1.09
0.37 0.37 0.40 0.41 0.41 0.43 0.45 0.52 0.56 0.52 0.52 0.58 0.56 0.55 0.58 0.63 0.69 0.87 1.13 1.23 1.34 1.40 1.48 1.65 1.95 1.97 1.87 1.88 1.72 1.52 1.39 1.39 1.42 1.45 1.43 1.37 1.40 1.26 1.11 0.95 0.82 0.60 0.71
0.31 0.32 0.35 0.39 0.40 0.37 0.32 0.37 0.41 0.41 0.50 0.59 0.64 0.70 0.76 0.79 0.85 1.05 1.28 1.54 1.68 1.58 1.62 1.84 2.11 2.28 2.12 1.99 2.06 1.94 1.77 1.58 1.53 1.48 1.45 1.48 1.48 1.40 1.28 1.22 1.10 0.95 0.82
0.19 0.23 0.30 0.31 0.31 0.28 0.25 0.30 0.37 0.44 0.51 0.65 0.80 0.91 0.94 0.92 0.97 1.01 1.23 1.44 1.53 1.61 1.67 1.81 2.05 2.40 2.25 2.02 2.21 2.58 2.39 2.15 1.71 1.39 1.50 1.54 1.57 1.51 1.38 1.23 1.21 1.14 1.08
0.17 0.20 0.24 0.27 0.28 0.27 0.32 0.50 0.76 1.00 1.09 1.13 1.14 1.27 1.35 1.31 1.27 1.25 1.29 1.42 1.52 1.65 1.76 1.80 1.83 2.14 2.27 2.15 2.15 2.67 2.64 2.43 2.24 1.76 1.43 1.46 1.55 1.62 1.60 1.48 1.34 1.29 1.22
0.17 0.21 0.24 0.25 0.31 0.33 0.48 0.79 1.17 1.48 1.58 1.57 1.69 1.74 1.79 1.71 1.58 1.57 1.57 1.66 1.63 1.60 1.64 1.65 1.63 1.85 2.23 2.33 2.18 2.04 2.02 2.11 2.44 2.16 1.64 1.47 1.48 1.49 1.59 1.50 1.52 1.53 1.54
0.23 0.28 0.32 0.37 0.50 0.66 0.80 0.96 1.25 1.43 1.51 1.64 1.80 1.97 2.11 2.20 2.14 2.06 2.02 1.89 1.71 1.63 1.65 1.70 1.69 1.79 1.93 2.10 2.08 1.95 1.93 1.90 1.79 1.98 1.93 1.68 1.49 1.40 1.48 1.54 1.58 1.58 1.66
0.38 0.43 0.47 0.58 0.67 0.75 0.85 0.98 1.13 1.19 1.31 1.50 1.65 1.85 2.02 2.13 2.12 2.05 1.93 1.72 1.56 1.49 1.56 1.70 1.74 1.80 1.80 1.88 1.85 1.76 1.76 1.74 1.67 1.84 1.80 1.78 1.75 1.41 1.30 1.38 1.45 1.50 1.49

GEFSSE_prec_meanprecacc_216.txt.gz
Total_Precipitation_Accumulation
1.59 1.31 2.12 2.21 1.99 1.74 1.63 1.63 1.75 1.83 1.83 1.70 1.68 1.62 1.44 1.24 1.08 0.98 0.89 0.86 0.82 0.79 0.79 0.79 0.86 0.91 0.89 0.87 0.93 0.96 0.98 0.88 0.87 0.85 0.78 0.79 0.93 0.91 0.89 1.14 1.63 2.01 1.38
0.98 1.05 1.98 2.13 1.88 1.70 1.57 1.64 1.84 1.89 1.95 1.85 1.68 1.57 1.38 1.16 1.02 0.91 0.90 0.82 0.79 0.78 0.79 0.79 0.83 0.94 0.97 0.92 0.96 1.02 0.95 0.92 0.96 1.03 1.04 1.03 0.98 0.95 0.93 1.08 1.49 1.82 1.38
0.76 0.91 1.50 2.04 1.85 1.76 1.72 1.72 1.78 1.87 1.84 1.64 1.52 1.41 1.29 1.13 0.99 0.93 0.88 0.81 0.77 0.79 0.72 0.70 0.76 0.85 0.90 0.94 0.94 0.91 0.85 0.91 1.00 1.20 1.61 2.06 1.48 1.12 1.12 1.09 1.31 1.33 1.24
0.79 0.85 1.13 1.83 1.88 1.82 1.78 1.76 1.72 1.69 1.66 1.48 1.39 1.30 1.20 1.18 1.08 1.00 0.92 0.86 0.76 0.70 0.68 0.71 0.69 0.74 0.78 0.81 0.86 0.82 0.78 0.90 1.03 1.24 1.67 2.15 1.94 1.49 1.34 1.30 1.40 1.24 1.19
0.85 0.91 1.28 1.90 1.89 1.82 1.79 1.79 1.84 1.68 1.61 1.44 1.25 1.22 1.17 1.18 1.08 1.02 0.94 0.84 0.75 0.71 0.66 0.69 0.72 0.74 0.82 0.82 0.80 0.78 0.79 0.91 1.13 1.06 1.35 1.81 2.24 1.93 1.45 1.46 1.54 1.35 1.29
0.92 1.00 1.31 1.75 1.82 1.81 1.80 1.80 1.73 1.57 1.47 1.37 1.20 1.19 1.22 1.18 1.10 1.03 0.94 0.87 0.78 0.78 0.74 0.72 0.77 0.83 0.87 0.86 0.85 0.90 0.97 1.00 0.96 1.08 1.38 1.74 2.20 2.00 1.58 1.48 1.40 1.48 1.39
0.95 0.97 1.23 1.65 1.72 1.75 1.66 1.51 1.48 1.47 1.36 1.22 1.16 1.12 1.13 1.10 1.05 0.99 1.03 0.98 0.87 0.83 0.79 0.80 0.83 0.83 0.85 0.88 0.92 0.99 1.07 0.98 0.93 1.18 1.32 1.67 1.78 1.78 1.52 1.39 1.45 1.65 1.54
1.00 0.92 1.03 1.40 1.52 1.54 1.49 1.43 1.44 1.41 1.32 1.15 1.07 1.04 1.03 1.05 0.96 0.89 0.90 0.88 0.87 0.86 0.84 0.80 0.80 0.73 0.76 0.88 0.97 1.06 1.17 1.03 0.91 1.07 1.13 1.45 1.82 1.85 1.46 1.38 1.44 1.64 1.72
1.30 1.12 1.01 1.10 1.25 1.36 1.45 1.48 1.55 1.54 1.45 1.26 1.09 1.05 1.02 0.94 0.79 0.73 0.79 0.83 0.84 0.81 0.83 0.83 0.85 0.81 0.82 0.97 1.06 1.13 1.21 1.06 1.01 1.04 0.93 1.43 1.95 1.75 1.42 1.27 1.31 1.48 1.59
1.30 1.26 1.13 1.08 1.12 1.18 1.29 1.51 1.70 1.79 1.83 1.55 1.22 1.12 1.00 0.83 0.74 0.76 0.77 0.82 0.87 0.91 0.93 0.96 1.00 0.97 1.04 1.05 1.08 1.10 1.05 0.90 0.92 0.91 1.09 1.37 1.87 1.74 1.39 1.21 1.20 1.18 1.25
0.93 1.00 1.04 1.03 1.10 1.11 1.14 1.27 1.60 1.79 1.92 1.58 1.14 1.16 1.03 0.75 0.72 0.79 0.81 1.02 1.10 1.12 1.15 1.18 1.18 1.17 1.15 1.09 1.12 1.14 0.90 0.67 0.80 0.98 1.18 1.49 1.86 1.75 1.37 1.19 1.01 0.99 1.02
0.75 0.71 0.72 0.73 0.79 0.89 0.95 1.22 1.54 1.60 1.71 1.38 1.13 1.16 1.08 1.11 1.04 0.81 0.85 1.16 1.29 1.34 1.26 1.25 1.31 1.20 1.00 0.83 0.86 0.87 0.74 0.72 0.81 0.93 1.13 1.62 1.95 1.76 1.41 1.18 0.96 0.92 0.93
0.56 0.54 0.53 0.55 0.56 0.67 0.92 1.21 1.49 1.59 1.66 1.60 1.57 1.39 1.33 1.26 1.06 0.89 0.86 0.93 1.01 1.11 1.05 1.14 1.16 0.99 0.90 0.79 0.77 0.73 0.68 0.79 0.98 0.95 1.19 1.69 2.00 1.84 1.57 1.33 1.06 0.98 0.98
0.58 0.56 0.49 0.42 0.45 0.55 0.71 0.92 1.23 1.41 1.50 1.49 1.46 1.19 1.24 1.24 1.06 1.00 1.09 1.12 1.08 1.07 1.21 1.25 1.24 1.17 1.00 0.82 0.80 0.84 0.81 0.80 0.98 1.09 1.29 1.50 1.88 2.10 1.89 1.58 1.33 1.24 1.19
0.66 0.74 0.70 0.54 0.49 0.56 0.62 0.65 0.80 0.97 1.08 1.34 1.42 1.09 1.02 1.04 1.11 1.13 1.03 1.17 1.24 1.24 1.25 1.25 1.18 1.14 1.15 0.99 1.00 1.05 1.05 0.91 0.98 1.03 1.17 1.25 1.58 2.12 2.27 2.00 1.77 1.57 1.45
0.51 0.62 0.67 0.66 0.68 0.67 0.59 0.53 0.52 0.58 0.72 0.88 0.93 0.83 0.82 0.85 0.98 1.17 1.08 1.07 1.15 1.32 1.38 1.34 1.25 1.31 1.30 1.13 1.13 1.20 1.17 1.08 1.08 1.11 1.22 1.14 1.14 1.49 1.92 2.12 2.12 1.96 1.77
0.41 0.46 0.54 0.59 0.65 0.69 0.74 0.70 0.56 0.57 0.65 0.68 0.68 0.70 0.76 0.76 0.89 1.08 1.04 0.96 0.97 1.13 1.31 1.45 1.50 1.49 1.31 1.23 1.21 1.25 1.17 1.15 1.15 1.31 1.30 1.28 1.15 1.06 1.31 1.57 1.84 1.95 1.96
0.40 0.40 0.46 0.46 0.52 0.62 0.75 0.81 0.76 0.73 0.70 0.65 0.60 0.53 0.57 0.58 0.66 0.87 0.95 0.90 0.91 1.07 1.30 1.52 1.67 1.71 1.55 1.50 1.53 1.44 1.27 1.23 1.22 1.33 1.32 1.34 1.40 1.16 1.03 1.02 1.17 1.43 1.65
0.38 0.38 0.40 0.43 0.45 0.52 0.63 0.70 0.68 0.66 0.64 0.63 0.62 0.51 0.46 0.48 0.57 0.78 1.00 1.06 1.05 1.18 1.31 1.35 1.59 1.71 1.78 1.70 1.57 1.46 1.37 1.38 1.35 1.28 1.40 1.38 1.38 1.29 1.12 0.85 0.76 0.85 1.13
0.38 0.37 0.40 0.42 0.41 0.43 0.46 0.54 0.57 0.53 0.53 0.60 0.58 0.57 0.60 0.66 0.71 0.90 1.16 1.25 1.35 1.41 1.49 1.66 1.95 1.99 1.88 1.90 1.73 1.52 1.39 1.40 1.42 1.46 1.46 1.41 1.42 1.29 1.14 0.97 0.83 0.62 0.73
0.32 0.32 0.35 0.40 0.41 0.38 0.33 0.38 0.42 0.42 0.51 0.60 0.67 0.73 0.78 0.81 0.87 1.08 1.30 1.55 1.69 1.59 1.64 1.86 2.13 2.30 2.13 2.00 2.06 1.95 1.78 1.59 1.53 1.48 1.46 1.50 1.49 1.42 1.29 1.23 1.11 0.96 0.82
0.20 0.24 0.31 0.32 0.31 0.28 0.25 0.30 0.38 0.44 0.52 0.66 0.81 0.92 0.96 0.94 0.99 1.03 1.25 1.46 1.55 1.62 1.69 1.82 2.07 2.41 2.27 2.04 2.22 2.59 2.39 2.16 1.72 1.39 1.51 1.56 1.58 1.53 1.41 1.25 1.21 1.15 1.08
0.18 0.21 0.25 0.27 0.29 0.27 0.32 0.50 0.76 1.01 1.10 1.13 1.15 1.28 1.37 1.32 1.29 1.26 1.30 1.44 1.53 1.66 1.77 1.82 1.86 2.17 2.29 2.17 2.16 2.68 2.65 2.45 2.26 1.77 1.44 1.47 1.57 1.65 1.64 1.51 1.36 1.29 1.22
0.18 0.22 0.24 0.26 0.32 0.34 0.49 0.80 1.18 1.49 1.59 1.58 1.70 1.75 1.80 1.73 1.59 1.58 1.59 1.69 1.65 1.62 1.66 1.68 1.67 1.88 2.25 2.34 2.19 2.05 2.03 2.13 2.45 2.18 1.66 1.49 1.50 1.53 1.63 1.53 1.55 1.56 1.55
0.25 0.30 0.33 0.39 0.51 0.67 0.81 0.98 1.27 1.44 1.52 1.66 1.82 1.99 2.13 2.22 2.15 2.08 2.04 1.91 1.72 1.64 1.68 1.73 1.72 1.81 1.94 2.11 2.09 1.96 1.94 1.90 1.79 1.98 1.94 1.70 1.51 1.41 1.50 1.56 1.60 1.61 1.69
0.39 0.45 0.48 0.59 0.69 0.76 0.87 1.00 1.14 1.20 1.32 1.52 1.67 1.86 2.04 2.14 2.13 2.06 1.94 1.74 1.57 1.50 1.57 1.73 1.76 1.82 1.81 1.89 1.86 1.77 1.77 1.75 1.68 1.84 1.80 1.79 1.76 1.43 1.31 1.39 1.46 1.51 1.51